Regional Weather Roundup
Issued by NWS

Home | Current Version | Previous Version | Text Only | Print | Product List | Glossary Off
Versions: 1 2 3 4 5 6 7 8 9 10 11 12 13 14 15 16 17 18 19 20 21 22 23 24 25 26 27 28 29 30 31 32 33 34 35 36 37 38 39 40 41 42 43 44 45 46 47 48 49 50

922
ASUS44 KLIX 271605
RWRLA
LOUISIANA WEATHER ROUNDUP
NATIONAL WEATHER SERVICE NEW ORLEANS LA
1100 AM CDT SUN JUL 27 2014

NOTE: "FAIR" INDICATES FEW OR NO CLOUDS BELOW 12,000 FEET WITH NO
      SIGNIFICANT WEATHER AND/OR OBSTRUCTIONS TO VISIBILITY.
      SKY/WX - SKY CONDITION AND SIGNIFICANT WEATHER.
      TMP - AIR TEMPERATURE.    DP   - DEWPOINT TEMPERATURE.
      RH  - RELATIVE HUMIDITY.  PRES - PRESSURE.
      HX  - HEAT INDEX.         WCI  - WIND CHILL INDEX.

*  THESE STATIONS ARE NOT NWS OR FAA STATIONS AND ARE NOT UNDER
   NWS QUALITY CONTROL.

LAZ040-048-061>063-065-066-069-271700-
SOUTHEAST LOUISIANA

CITY           SKY/WX    TMP DP  RH WIND       PRES   REMARKS
N.O. AUDUBON     N/A     94  76  56 MISG        N/A  HX 107
N.O. INTL ARPT PTSUNNY   89  75  63 VRB6      30.11S HX  99
N.O. LAKEFRONT SUNNY     87  77  72 NW9       30.12S HX  99
N.O. DOWNTOWN* FAIR      90  72  55 W5        30.11F HX  96
SLIDELL        MOSUNNY   87  73  62 W6        30.10S
BATON ROUGE    PTSUNNY   89  75  63 W10       30.11S HX  99
BOOTHVILLE     PTSUNNY   85  78  80 SW10      30.13R HX  96
BELLE CHASSE   PTSUNNY   87  73  62 NW7       30.11S
BOGALUSA*      NOT AVBL
GALLIANO*      NOT AVBL
NEW ROADS*     NOT AVBL
GONZALES*      FAIR      88  78  73 W5        30.11S HX 101
HAMMOND*       MOSUNNY   88  72  58 W7        30.12S
HOUMA*         MOSUNNY   90  72  55 SW5       30.11S HX  96
PORT FOURCHON* SUNNY     88  77  70 W9        30.14S HX 100

$$

LAZ041-044-053-054-271700-
SOUTHWEST LOUISIANA

CITY           SKY/WX    TMP DP  RH WIND       PRES   REMARKS
LAKE CHARLES   MOSUNNY   89  75  63 SW9       30.10R HX  99
LAFAYETTE      MOSUNNY   88  75  65 W9        30.11S HX  97
PATTERSON      MOSUNNY   90  77  66 SW9       30.15S HX 102
SALT POINT       N/A     90  78  68 SW7       30.11R HX 104
NEW IBERIA     MOSUNNY   89  75  63 CALM      30.11S HX  99
CHENAULT AIRPK MOSUNNY   90  73  58 SW7       30.10S HX  98

$$

LAZ027-028-271700-
CENTRAL LOUISIANA

CITY           SKY/WX    TMP DP  RH WIND       PRES   REMARKS
FORT POLK      MOSUNNY   86  74  67 W8        30.10S
ALEXANDRIA INT SUNNY     89  74  60 W8        30.07S HX  98
ALEXANDRIA     SUNNY     90  75  61 W6        30.09S HX 100

$$

LAZ001-002-271700-
NORTHWEST LOUISIANA

CITY           SKY/WX    TMP DP  RH WIND       PRES   REMARKS
SHREVEPORT     SUNNY     89  74  60 SW9       30.07R HX  98
BARKSDALE AFB  SUNNY     88  73  62 S6        30.07S HX  95
DTN SHREVEPORT SUNNY     87  72  60 SW8       30.07S

$$

LAZ014-016-271700-
NORTHEAST LOUISIANA

CITY           SKY/WX    TMP DP  RH WIND       PRES   REMARKS
MONROE         SUNNY     89  73  59 SW12      30.08R HX  97
TALLULAH       SUNNY     90  75  61 VRB5      30.08S HX 100

$$




USA.gov is the U.S. government's official web portal to all federal, state and local government web resources and services.